Location: Il Ritiro
(43.4167°N, 13.1333°E)
Time: 08:10:12
(UTC+00:00)

Spot 2 Rocket - Pass Details

Date: 05 July 2020
Orbit: 757 x 772 km, 98.6° (Epoch: 05 August)

Event Time Altitude Azimuth Distance (km) Brightness Sun altitude
Exits shadow 19:36:32 - 141° (SE) 2,414 5.4 -7.4°
Reaches altitude 10° 19:36:50 10° 140° (SE) 2,301 5.3 -7.5°
Maximum altitude 19:41:37 44° 69° (ENE) 1,058 4.1 -8.1°
Drops below altitude 10° 19:46:27 10° 359° (N) 2,323 6.7 -8.8°
Sets 19:48:51 0° 353° (N) 3,256 7.6 -9.1°
